RH
93 93 93 91 89 89 88 88 91 91 84 79 78 80 78 79 83 91 92 92 89 95 90 68 64 67 70 69 69 66 62 71 73 77 91 93 70 67 80 64 76 68 88 92 90 89 49 75 80 64 53 87 87 89
93 92 93 93 91 90 89 89 91 93 86 81 80 80 77 78 82 89 98 93 89 96 87 68 64 62 59 62 72 77 65 74 74 80 93 97 90 96 74 58 70 69 57 63 63 56 42 74 60 70 76 81 85 87
94 93 93 93 93 90 90 90 91 94 88 82 80 76 75 77 77 88 96 96 92 96 94 92 90 71 66 67 67 70 78 68 74 89 96 88 81 88 84 86 72 68 64 65 54 45 56 59 70 73 72 72 76 79
94 94 93 93 94 91 90 90 91 93 89 83 77 74 78 79 78 87 93 97 90 83 99 89 66 74 68 71 72 74 71 73 76 89 95 97 74 74 72 59 70 56 65 66 70 60 63 55 68 75 77 71 69 68
94 94 94 94 94 92 91 91 92 93 92 85 80 78 80 82 82 93 93 90 84 84 95 88 75 71 74 76 76 76 76 78 86 89 96 90 88 81 85 83 86 66 63 54 43 42 41 42 60 76 77 73 71 70
94 94 94 94 94 93 91 91 92 94 93 87 82 80 82 84 86 95 99 91 86 77 92 94 80 83 81 82 86 88 86 87 93 93 92 92 81 81 90 85 59 56 59 50 37 47 56 75 81 79 74 75 74 72
94 94 94 94 94 94 92 92 93 94 95 90 84 81 83 85 95 98 94 89 84 76 92 93 91 85 81 81 88 91 86 92 91 92 96 91 84 90 96 69 46 51 44 44 55 66 76 75 73 76 73 72 70 71
93 93 93 93 94 94 94 93 94 95 96 92 87 84 84 85 84 94 94 90 79 78 77 98 96 92 82 94 94 93 94 95 93 92 94 93 90 93 90 63 49 33 38 50 51 54 54 68 77 76 74 79 83 86
93 93 93 93 94 94 94 94 95 95 96 94 91 86 92 96 99 95 84 87 88 83 99 99 98 91 89 91 94 95 95 99 90 96 92 88 91 95 69 57 49 45 50 44 54 64 72 73 76 76 79 87 87 89
93 93 93 93 94 94 94 94 95 97 95 92 91 99 100 97 85 85 90 96 99 99 99 98 93 96 87 92 95 94 96 97 100 90 93 98 92 70 54 51 40 36 48 62 75 83 84 82 80 76 76 77 80 85
92 93 93 93 94 94 94 94 96 96 92 96 98 100 98 83 94 96 100 99 97 99 98 97 81 91 86 90 90 87 96 98 99 85 91 95 98 86 50 46 41 45 48 52 44 47 55 60 70 73 83 87 89 86
92 93 93 93 94 94 95 96 96 90 93 92 95 95 97 98 100 99 98 97 97 96 98 97 92 87 90 86 86 96 95 96 95 89 98 98 85 70 68 55 60 64 55 51 51 58 64 70 67 70 77 85 87 87
93 93 93 93 94 94 95 96 88 91 89 92 96 100 99 99 99 98 97 99 99 97 98 96 93 85 92 90 84 90 97 96 91 99 98 91 72 62 70 69 67 66 62 59 67 69 71 77 76 75 81 84 86 88
92 92 93 93 94 94 95 94 92 88 91 100 99 99 97 98 94 93 91 90 92 96 97 84 92 86 86 92 86 93 81 92 100 100 95 83 66 49 49 71 67 67 68 67 72 79 82 81 82 85 83 85 86 88
94 94 93 94 94 95 96 93 89 87 99 99 99 97 97 90 97 91 93 90 97 86 83 88 93 82 96 90 93 92 100 99 86 85 81 74 59 60 64 70 78 75 76 74 79 82 86 87 88 92 90 88 87 86
94 95 96 93 95 95 92 91 91 96 100 99 100 99 95 92 99 99 96 87 92 78 82 87 92 96 91 93 99 94 94 97 85 91 86 88 72 70 73 77 80 77 77 80 83 85 89 88 89 90 92 90 89 87
97 95 93 94 96 94 91 93 100 100 99 99 99 97 95 90 89 96 84 82 71 80 91 92 94 87 92 100 100 92 94 86 87 85 91 79 73 72 80 81 83 83 84 87 87 88 89 92 92 93 96 91 86 76
97 96 95 96 95 94 94 100 100 99 99 99 98 96 95 93 84 93 90 80 81 85 90 91 86 99 97 98 96 91 92 91 89 82 76 77 81 81 83 87 90 89 89 89 86 90 92 93 93 93 94 92 94 93
96 94 95 94 88 94 100 100 100 98 98 96 98 89 91 95 86 64 80 76 88 87 89 94 87 97 93 94 89 92 93 92 71 73 86 87 84 86 89 93 94 93 91 92 92 88 88 90 90 92 93 93 96 99
93 94 93 89 80 99 99 99 100 98 98 97 97 96 94 95 89 76 79 84 87 94 100 100 76 85 91 86 85 75 79 87 88 86 82 90 91 95 95 94 93 93 89 95 94 89 91 95 95 94 95 94 96 98
95 95 91 89 100 100 99 99 99 98 99 99 98 89 99 97 95 96 93 88 91 99 90 84 69 59 63 75 84 81 79 86 85 76 74 96 96 95 97 96 94 92 92 91 92 93 88 92 95 96 95 97 93 86
97 89 98 98 99 99 98 99 96 99 98 98 95 96 98 98 98 97 98 92 83 74 78 61 60 59 62 85 83 85 72 84 86 86 75 86 99 99 98 97 96 96 94 93 92 93 94 94 96 96 95 94 83 84
90 94 100 100 97 97 98 99 95 98 98 98 96 97 98 98 98 93 98 94 88 91 65 70 73 76 68 72 86 86 88 87 90 86 90 92 93 93 93 94 92 94 96 95 89 92 94 91 90 93 90 85 80 85
90 99 98 98 96 97 97 98 98 98 98 98 97 97 97 98 98 99 97 98 81 69 72 80 76 94 99 100 90 82 89 90 86 93 92 94 96 97 92 91 89 89 88 91 92 94 94 94 84 86 81 80 83 86
98 99 96 97 98 96 97 98 97 95 97 97 97 98 97 98 97 98 97 92 76 78 77 76 75 79 79 75 74 85 96 89 92 94 97 91 93 98 98 97 97 97 90 95 97 97 95 91 86 82 80 81 88 94
95 98 96 94 97 89 96 98 98 98 96 99 98 98 100 98 100 98 93 92 77 81 80 78 81 86 81 72 76 95 96 90 88 95 97 94 89 92 97 97 97 98 97 86 90 93 90 86 85 85 84 83 86 98
96 97 97 92 92 90 96 91 88 93 98 100 96 98 99 100 99 88 97 99 99 99 98 98 95 82 79 79 92 86 90 93 92 91 96 93 93 88 87 91 93 93 92 86 84 83 87 87 84 86 94 96 94 92
95 96 98 100 98 96 96 96 96 94 95 93 91 99 94 89 86 95 97 97 98 98 98 97 98 95 96 95 94 97 96 96 96 96 96 95 96 97 96 94 93 88 88 87 87 87 82 82 86 91 91 92 98 98
97 93 89 100 98 97 95 93 91 95 90 87 89 95 93 95 98 98 97 98 98 100 98 98 98 97 97 97 97 96 95 94 95 97 97 96 96 96 96 93 94 95 93 92 85 85 88 86 87 87 90 92 96 96
99 96 95 98 95 98 97 97 98 98 97 96 96 96 96 97 97 98 99 99 99 99 98 97 97 97 96 95 96 97 97 97 90 86 93 93 92 94 95 95 95 93 90 87 87 84 80 87 91 94 96 97 98 100
93 93 94 95 98 98 98 97 98 98 99 100 100 97 97 98 97 99 100 100 100 99 98 97 98 97 96 96 95 95 96 97 98 95 91 92 91 93 92 91 89 86 85 85 89 91 93 93 92 94 95 98 99 100
96 97 95 98 99 97 98 99 99 99 99 99 99 99 98 97 99 97 98 99 99 99 93 95 96 97 97 98 97 97 88 96 96 95 94 91 91 91 89 89 89 89 90 89 91 90 87 90 93 93 96 100 99 99
98 98 99 99 98 98 98 98 98 99 98 99 99 98 98 97 96 96 99 99 98 98 99 98 98 98 98 97 97 96 95 96 94 91 89 89 88 88 89 88 87 87 87 87 87 88 90 92 94 96 97 98 99 100
Wind_Speed
22 23 22 21 21 20 19 17 14 20 17 15 13 12 9 8 8 4 3 2 4 1 4 4 4 4 1 2 2 3 3 2 2 1 2 3 2 3 1 4 5 6 5 3 2 1 7 6 4 7 6 1 6 6
24 24 24 23 22 22 21 20 16 20 20 17 16 15 13 12 11 7 1 2 3 3 5 4 4 4 6 6 6 1 3 3 5 2 0 2 2 2 3 4 1 3 7 5 9 8 5 9 6 6 5 5 5 6
25 25 25 24 24 23 22 21 18 19 23 20 18 17 15 14 13 10 3 2 2 1 4 1 7 6 5 7 3 4 2 3 2 3 4 2 4 4 3 7 3 4 4 4 2 4 10 10 8 5 7 7 5 5
26 26 26 26 25 25 24 23 22 21 24 23 21 19 17 15 14 11 3 3 1 2 3 4 2 3 4 7 6 3 3 3 3 2 2 2 3 4 4 3 5 5 6 5 7 10 6 11 10 9 7 6 5 5
27 27 27 27 26 27 26 26 24 23 24 24 21 18 17 15 13 4 3 4 4 4 3 4 2 3 2 5 7 6 5 3 2 1 2 4 3 2 1 1 5 7 9 7 9 10 5 7 4 9 10 9 9 8
29 29 29 28 28 28 28 28 26 24 26 25 23 20 17 16 14 3 2 5 7 3 0 4 1 3 4 3 3 4 4 3 3 5 4 4 3 4 3 5 8 8 6 8 7 6 6 0 1 6 10 9 8 8
30 30 30 30 29 29 29 28 26 25 26 26 24 21 19 18 6 3 4 3 7 5 1 4 3 2 4 5 2 2 1 2 3 3 4 3 3 5 3 9 4 9 14 12 6 6 2 6 6 9 7 8 10 6
31 31 31 31 31 30 30 29 28 27 26 26 22 19 17 16 4 3 3 3 4 4 2 4 4 0 4 3 3 3 3 1 3 3 1 3 2 3 8 8 11 16 9 8 13 14 7 6 7 7 6 7 7 7
32 32 32 32 32 31 31 30 29 26 27 27 25 19 5 4 3 3 6 6 1 2 5 4 5 5 3 2 3 2 3 2 1 3 4 5 4 11 12 12 13 14 12 10 8 10 8 10 12 11 9 8 8 8
33 33 33 32 32 32 32 32 29 27 32 30 15 5 5 5 17 14 3 3 3 4 5 4 3 3 4 2 1 3 2 4 3 7 3 6 8 6 12 19 18 15 13 10 8 7 6 7 13 15 16 12 10 9
34 34 34 34 33 33 33 32 31 36 33 6 7 4 3 19 4 2 4 4 5 5 6 5 8 7 5 4 4 4 3 2 1 6 5 5 7 8 19 19 18 15 14 18 18 14 16 9 15 14 11 11 9 9
35 35 35 34 34 34 34 33 42 20 8 9 10 8 4 4 3 7 7 6 8 8 7 7 6 5 4 3 3 3 4 1 9 3 3 7 7 12 4 11 9 8 11 14 15 12 14 11 14 13 13 12 11 9
34 34 34 34 34 34 34 38 44 35 27 7 5 6 6 5 9 11 14 8 7 6 7 7 6 5 3 2 3 3 5 9 2 4 8 7 6 6 10 6 6 7 9 10 8 8 11 10 10 11 12 9 10 9
35 35 35 35 34 34 34 47 43 35 11 6 7 11 9 8 11 9 5 6 5 5 10 9 4 5 4 4 4 6 5 3 5 6 9 5 9 14 5 4 4 7 8 10 11 11 11 12 10 8 11 12 11 9
34 34 34 33 33 34 39 47 45 15 6 7 8 11 13 6 3 4 4 6 3 9 11 6 3 3 3 4 5 3 2 8 9 6 6 7 8 3 5 5 7 6 7 10 10 10 10 10 11 8 9 10 8 7
30 28 24 31 33 33 48 42 20 5 4 6 7 6 3 10 5 4 4 5 4 10 7 1 5 4 6 6 6 12 7 9 6 6 6 3 3 4 5 5 7 6 7 9 12 10 9 11 11 10 8 7 7 7
27 11 23 31 32 44 47 14 4 6 8 8 4 4 3 6 11 6 7 8 9 13 7 5 9 13 3 5 7 6 8 5 5 5 4 5 6 4 3 4 6 8 8 9 10 13 10 8 11 9 8 6 6 6
12 11 28 32 32 34 10 3 5 7 7 5 8 10 3 3 9 6 4 10 9 6 5 8 4 4 8 9 5 5 6 5 5 5 5 6 3 3 5 7 6 7 9 9 10 11 12 11 10 7 8 7 6 5
10 17 34 42 29 10 6 4 4 7 4 4 3 8 6 4 2 8 8 12 3 3 6 3 6 7 6 5 5 4 4 4 4 3 3 4 4 5 4 3 4 5 9 9 10 8 10 11 7 6 6 7 5 4
27 32 44 43 27 5 6 2 2 4 6 5 5 7 5 4 6 6 7 10 7 4 3 6 10 5 5 5 6 6 5 4 4 2 5 3 3 4 5 7 6 7 7 4 5 11 8 6 4 5 5 6 6 5
19 25 41 20 4 4 4 5 4 4 5 3 3 7 4 3 4 5 7 7 6 5 7 6 8 10 13 6 4 5 5 6 6 6 6 3 4 5 4 4 8 7 9 7 8 8 11 8 6 6 6 5 4 5
14 30 7 4 4 3 4 1 6 3 4 4 6 3 4 4 5 5 4 8 9 10 8 12 14 13 9 6 7 9 7 8 6 5 5 5 4 5 6 6 7 8 8 8 8 9 7 6 7 6 6 6 7 5
19 6 4 4 5 4 3 1 5 2 6 7 6 5 3 3 3 6 4 6 5 5 14 12 12 9 13 10 5 6 8 8 6 7 7 7 6 6 7 9 8 10 8 7 7 8 7 12 11 8 7 7 7 6
10 5 4 4 4 4 4 2 3 4 4 4 5 5 4 4 5 3 6 5 10 12 12 16 10 5 1 1 9 10 8 8 6 3 6 8 7 7 7 7 7 7 7 7 7 8 8 7 12 8 7 8 8 7
8 4 6 4 3 6 5 4 3 3 4 3 5 3 4 4 5 5 6 6 7 10 12 11 12 13 15 14 11 8 7 9 9 9 6 6 7 8 6 5 5 6 8 10 7 9 8 7 7 8 8 8 10 8
6 2 5 6 4 6 6 7 6 6 5 4 4 3 3 4 4 9 7 4 7 7 9 12 13 12 13 14 10 9 9 7 8 8 7 8 10 11 11 11 9 4 3 8 11 12 11 9 9 11 8 11 16 11
6 3 2 2 5 6 5 4 2 5 5 8 7 6 5 6 9 8 2 1 2 1 2 3 4 9 10 8 3 7 9 10 7 6 6 6 5 7 10 12 14 8 8 10 10 12 13 11 10 10 9 6 6 7
3 4 8 5 4 0 6 4 5 6 5 4 8 8 12 12 9 4 3 2 3 4 5 5 6 4 4 6 8 8 7 8 11 11 9 8 6 4 5 6 8 20 9 9 10 9 10 11 11 11 11 10 5 2
3 2 5 4 3 3 3 5 7 3 4 8 7 5 6 4 2 2 2 2 3 2 3 1 3 5 6 5 6 7 11 12 15 17 15 8 6 2 4 9 10 8 8 9 15 14 14 12 11 10 11 9 6 5
3 2 5 3 3 2 2 1 1 1 1 1 1 3 2 3 3 2 1 2 0 1 1 1 2 4 7 8 8 5 3 3 8 12 14 12 9 8 8 10 10 10 10 11 12 14 22 15 16 10 9 7 5 5
3 3 5 4 2 1 2 2 2 2 3 2 2 3 3 3 3 2 3 3 2 1 2 3 3 3 6 8 10 10 6 2 5 9 10 10 12 11 10 10 10 10 11 13 13 12 13 10 10 11 10 9 9 8
4 3 5 4 1 2 1 2 1 2 1 2 3 1 4 4 3 3 2 3 2 2 4 4 5 5 5 4 5 2 11 8 8 10 17 12 11 11 11 10 10 10 12 12 11 12 13 13 10 10 10 9 8 7
3 3 4 4 3 1 2 3 2 1 2 0 2 2 2 3 6 3 1 0 2 2 2 2 3 5 6 6 7 9 11 8 15 20 23 24 24 18 11 10 10 11 14 12 11 11 13 14 11 10 9 9 8 7
Wind_Direction
232 227 223 223 226 223 231 233 217 198 200 202 206 210 205 187 167 122 245 193 118 272 275 182 168 153 114 119 158 252 20 348 21 46 119 232 174 232 222 220 192 182 148 212 98 17 298 153 75 168 219 97 164 183
234 230 225 221 221 219 218 229 216 197 195 198 198 203 204 193 178 141 240 249 149 161 233 205 220 206 182 194 152 194 198 211 213 119 200 110 271 39 167 277 128 249 191 187 186 217 237 211 197 211 177 161 198 188
233 231 227 222 215 217 214 219 221 199 193 194 196 201 202 200 189 169 173 177 126 225 283 242 213 204 150 171 204 148 245 198 186 171 169 214 240 133 195 241 221 248 174 223 360 264 228 222 236 212 190 192 182 187
231 229 229 223 214 212 214 212 214 203 195 192 194 199 198 199 198 183 173 192 254 165 200 273 22 245 178 153 153 176 138 93 109 111 150 177 224 165 220 232 197 204 143 202 261 277 282 268 228 194 197 169 154 162
231 228 226 221 217 212 212 211 209 204 195 193 191 196 194 189 193 171 186 216 202 153 233 277 294 232 123 160 170 158 160 142 144 121 154 228 224 143 238 1 240 186 193 177 223 217 190 240 231 168 172 185 179 167
231 227 225 220 215 212 213 212 205 202 193 190 184 188 190 182 164 132 244 213 195 162 307 289 300 155 140 147 191 196 172 163 159 168 212 242 232 140 199 238 244 217 220 199 234 199 198 26 243 165 174 178 175 179
229 228 224 220 213 212 209 212 208 201 190 183 178 180 182 180 160 181 208 177 160 126 174 282 276 296 154 120 144 160 129 236 163 212 222 210 227 165 206 240 231 234 231 231 202 126 209 191 206 178 160 173 173 165
233 228 224 219 214 209 208 206 205 198 185 172 166 168 173 170 162 268 198 153 121 145 202 245 247 33 185 155 177 173 159 104 237 234 279 202 150 202 249 247 244 248 245 231 211 205 207 157 140 159 144 147 161 178
230 228 225 220 213 207 205 202 203 193 171 155 146 153 146 174 173 218 155 129 18 189 201 198 187 226 156 159 135 110 152 186 199 246 238 143 200 223 220 224 231 229 201 223 199 189 169 173 177 170 162 172 172 189
228 226 224 219 213 205 203 196 192 176 148 136 135 150 196 179 117 122 20 140 222 213 224 212 137 172 147 167 170 114 197 221 200 228 136 217 251 244 237 234 241 242 206 154 148 191 184 200 185 182 188 181 181 177
229 225 222 218 211 205 199 192 177 149 137 157 155 149 105 132 96 153 186 203 190 227 206 175 179 144 211 152 171 194 200 190 186 246 167 251 256 239 234 235 240 242 212 208 212 203 193 187 182 179 176 172 169 170
228 224 221 217 210 204 196 183 154 144 150 141 111 95 115 140 179 176 192 199 210 225 175 163 180 148 143 153 116 187 193 163 244 149 141 256 247 247 221 239 234 214 208 213 205 185 173 168 179 180 170 171 173 165
228 223 219 215 208 202 192 171 160 128 120 112 102 135 161 160 204 204 186 198 187 163 174 171 137 125 128 180 123 149 202 227 68 212 232 226 250 263 236 223 241 231 197 193 178 169 166 157 155 166 166 163 158 160
230 223 217 213 206 197 184 164 147 134 116 140 156 152 201 182 226 198 166 144 183 150 154 153 115 144 146 147 159 183 222 104 258 250 236 238 235 237 250 162 172 213 191 172 172 158 161 162 163 157 162 155 156 162
227 218 213 208 201 189 170 157 153 146 124 159 155 197 206 187 179 194 154 120 144 139 142 113 80 121 152 157 190 119 154 242 220 243 240 231 251 203 199 188 204 202 182 168 157 158 156 151 153 151 154 145 148 144
226 219 210 200 191 174 160 151 154 115 142 160 192 179 182 154 173 153 161 150 158 135 118 110 159 160 193 187 167 208 171 210 237 232 250 289 268 249 234 192 166 177 179 177 148 146 145 149 153 150 129 140 148 147
218 214 181 185 174 160 151 130 114 174 181 176 191 198 157 132 169 168 162 156 149 144 172 168 177 206 112 191 204 199 202 209 220 248 250 243 260 264 222 194 168 163 167 172 151 141 139 129 126 133 147 157 150 159
217 178 169 168 155 138 135 85 148 172 186 192 163 156 172 148 164 145 152 150 147 181 151 202 130 165 197 179 209 229 224 233 226 240 268 289 248 209 179 182 183 166 164 168 165 144 134 143 154 164 140 144 134 140
166 165 163 152 138 119 127 172 185 168 187 147 107 158 164 155 182 163 146 166 153 183 129 133 220 201 206 184 180 215 223 194 239 296 289 306 250 216 191 147 160 160 163 161 160 162 151 151 152 144 145 149 156 153
163 160 151 143 140 105 113 93 146 132 168 170 112 169 154 157 145 155 152 167 177 156 186 211 223 208 189 208 194 212 214 165 154 271 274 254 218 172 179 170 171 155 132 136 132 138 130 116 129 139 152 164 145 164
139 151 139 132 78 79 107 159 131 138 132 146 140 138 104 108 132 154 175 172 193 208 226 206 231 237 227 235 177 167 193 172 189 190 218 229 178 175 172 172 149 167 142 174 164 166 158 159 149 155 159 147 140 136
112 120 100 68 88 76 82 66 121 117 94 126 119 99 123 166 156 187 130 201 222 217 206 223 229 236 234 206 210 202 211 178 197 202 211 159 154 173 169 178 175 168 166 180 176 174 162 146 139 142 138 134 131 126
114 84 65 91 96 79 115 8 94 121 132 149 127 107 146 157 180 128 220 222 243 220 228 227 235 232 229 236 175 207 189 180 199 202 192 189 189 172 168 179 185 166 162 182 171 154 148 150 156 138 135 130 129 114
91 92 122 106 97 113 128 116 104 115 110 144 136 127 155 149 149 201 243 220 223 228 223 228 219 212 346 70 215 220 201 187 208 198 186 172 173 155 166 177 168 164 158 150 149 136 139 129 141 137 136 132 126 126
115 146 112 109 106 116 118 132 120 103 113 119 113 127 162 155 179 219 234 245 210 211 219 217 220 219 227 235 235 222 173 176 187 191 186 175 137 125 129 131 124 131 141 135 148 142 137 127 133 136 137 140 136 131
87 146 143 150 150 129 160 128 168 149 122 129 171 155 101 135 160 238 232 221 217 218 217 212 212 214 222 220 209 187 187 184 167 177 177 166 163 159 159 160 154 161 171 153 149 145 139 139 136 137 140 144 144 127
125 165 134 66 113 122 101 79 90 113 134 156 164 165 143 171 224 247 274 247 233 286 296 298 268 218 219 212 163 165 161 175 186 149 122 137 135 170 172 174 177 154 144 141 145 151 145 142 146 143 128 103 119 138
106 149 139 165 103 116 122 115 134 167 167 165 132 177 180 193 224 226 206 239 222 266 261 264 240 210 154 146 138 126 105 113 106 102 90 68 54 68 97 101 117 141 134 134 134 132 138 142 141 138 134 132 127 105
89 125 104 84 99 82 148 166 184 184 146 169 170 178 222 224 198 185 239 235 258 287 310 268 46 80 89 104 129 142 144 146 143 153 153 143 136 96 118 119 123 122 125 119 132 129 129 130 134 131 125 125 121 117
121 97 95 81 112 152 211 123 175 243 49 112 99 45 342 277 236 167 194 266 163 209 241 123 125 140 146 139 130 121 25 159 174 161 153 161 154 139 133 129 125 121 119 120 120 124 121 112 110 104 108 119 120 117
87 81 75 49 86 276 253 276 333 41 44 43 356 135 231 287 302 219 189 203 226 220 129 144 134 144 146 152 153 146 134 345 106 105 97 115 132 133 132 126 124 125 127 126 125 128 127 120 125 129 131 131 145 133
50 93 125 110 301 309 18 73 120 89 8 59 298 10 352 20 294 265 225 133 126 130 206 175 167 164 153 156 156 106 115 125 121 122 126 129 126 127 122 122 120 119 121 123 122 127 130 130 134 134 132 130 136 141
77 62 61 88 92 319 274 96 73 48 14 186 264 240 211 191 244 250 293 160 147 140 166 133 114 112 109 104 113 117 109 109 126 128 127 128 128 126 122 121 119 121 122 122 124 130 128 128 127 127 127 134 141 137